EW9447 Weather Reports


Display with metric or nautical units.
time (UTC)temp
F
wind
direction
speed
MPH
gust
MPH
rain 1hr
in
rain 24hr
in
rain mn
in
humidity
%
barometer
mb
20260505113035 31 0 0.0 0.0 0.00 0.00 0.00 78 1009.9
20260505111539 32 0 0.0 1.0 0.00 0.00 0.00 77 1009.6
20260505101540 34 0 0.0 4.0 0.00 0.00 0.00 75 1008.8
20260505100039 34 0 1.0 3.0 0.00 0.00 0.00 75 1008.7
20260505094535 33 295 0.0 3.0 0.00 0.00 0.00 75 1008.8
20260505093035 33 0 0.0 2.0 0.00 0.00 0.00 74 1008.8
20260505091538 36 0 0.0 2.0 0.00 0.00 0.00 69 1008.7
20260505090035 37 0 0.0 3.0 0.00 0.00 0.00 69 1008.5
20260505084552 37 0 0.0 0.0 0.00 0.00 0.00 69 1008.3
20260505083058 38 0 0.0 0.0 0.00 0.00 0.00 68 1008.3
20260505081554 38 0 0.0 1.0 0.00 0.00 0.00 67 1008.2
20260505080045 38 0 0.0 0.0 0.00 0.00 0.00 69 1008.1
20260505074544 38 0 0.0 0.0 0.00 0.00 0.00 68 1007.9
20260505073048 38 0 0.0 0.0 0.00 0.00 0.00 67 1008.0
20260505071546 39 0 0.0 0.0 0.00 0.00 0.00 66 1008.0
20260505070049 40 0 0.0 0.0 0.00 0.00 0.00 64 1007.8
20260505064537 40 0 0.0 1.0 0.00 0.00 0.00 63 1007.9
20260505063050 40 0 0.0 0.0 0.00 0.00 0.00 63 1008.1
20260505061541 40 0 0.0 0.0 0.00 0.00 0.00 62 1008.1
20260505060055 41 0 0.0 0.0 0.00 0.00 0.00 62 1008.0
20260505054539 41 0 0.0 0.0 0.00 0.00 0.00 61 1007.9
20260505053038 41 0 0.0 1.0 0.00 0.00 0.00 62 1007.8
20260505051540 40 0 0.0 0.0 0.00 0.00 0.00 62 1007.7
20260505041552 43 0 0.0 0.0 0.00 0.00 0.00 57 1007.8
20260505040047 43 0 0.0 0.0 0.00 0.00 0.00 57 1007.8
20260505034537 43 0 0.0 0.0 0.00 0.00 0.00 56 1007.8
20260505033037 44 0 0.0 0.0 0.00 0.00 0.00 56 1008.0
20260505031543 45 0 0.0 1.0 0.00 0.00 0.00 55 1007.8
20260505030059 46 0 0.0 1.0 0.00 0.00 0.00 53 1007.7
20260505024543 47 0 0.0 1.0 0.00 0.00 0.00 52 1007.7
20260505023039 48 0 0.0 3.0 0.00 0.00 0.00 52 1007.4
20260505021536 49 0 0.0 4.0 0.00 0.00 0.00 51 1007.1
20260505020039 49 334 0.0 3.0 0.00 0.00 0.00 49 1006.8
20260505014556 50 351 1.0 4.0 0.00 0.00 0.00 49 1006.5
20260505013048 50 333 1.0 8.0 0.00 0.00 0.00 49 1006.0
20260505011542 51 0 0.0 5.0 0.00 0.00 0.00 48 1005.7
20260505010043 52 0 1.0 6.0 0.00 0.00 0.00 47 1005.6
20260505004546 53 306 1.0 13.0 0.00 0.00 0.00 47 1005.1
20260505003052 53 317 1.0 9.0 0.00 0.00 0.00 47 1004.9
20260505001542 54 0 1.0 8.0 0.00 0.00 0.00 48 1004.8
20260505000038 54 25 1.0 9.0 0.00 0.00 0.00 46 1004.6
20260504234534 55 288 2.0 10.0 0.00 0.00 0.00 46 1004.5
20260504233037 57 307 3.0 8.0 0.00 0.00 0.00 48 1004.3
20260504231533 58 297 1.0 9.0 0.00 0.00 0.00 46 1003.9
20260504230040 59 290 1.0 6.0 0.00 0.00 0.00 44 1003.9
20260504224538 61 320 1.0 8.0 0.00 0.00 0.00 42 1003.6
20260504223056 61 262 2.0 12.0 0.00 0.00 0.00 43 1003.4
20260504221535 60 302 4.0 20.0 0.00 0.00 0.00 41 1003.1
20260504220042 61 308 2.0 8.0 0.00 0.00 0.00 41 1003.2
20260504214539 63 321 8.0 23.0 0.00 0.00 0.00 38 1003.0
20260504213040 64 360 2.0 10.0 0.00 0.00 0.00 41 1002.8
20260504211604 65 307 5.0 15.0 0.00 0.00 0.00 38 1002.7
20260504210043 64 304 2.0 14.0 0.00 0.00 0.00 39 1002.7
20260504204543 64 328 2.0 7.0 0.00 0.00 0.00 38 1002.6
20260504203043 64 21 2.0 9.0 0.00 0.00 0.00 38 1002.6
20260504201539 63 280 4.0 19.0 0.00 0.00 0.00 37 1002.5
20260504200039 64 359 1.0 10.0 0.00 0.00 0.00 36 1002.2
20260504194549 65 331 3.0 14.0 0.00 0.00 0.00 34 1002.3
20260504193042 65 283 8.0 17.0 0.00 0.00 0.00 32 1002.2
20260504191553 65 3 2.0 15.0 0.00 0.00 0.00 38 1001.9
20260504190045 64 313 5.0 12.0 0.00 0.00 0.00 43 1001.9
20260504184546 65 306 6.0 14.0 0.00 0.00 0.00 34 1001.7
20260504183035 67 9 3.0 9.0 0.00 0.00 0.00 39 1001.6
20260504181544 68 326 2.0 8.0 0.00 0.00 0.00 41 1001.3
20260504180042 68 42 3.0 14.0 0.00 0.00 0.00 39 1001.1
20260504174537 67 303 6.0 15.0 0.00 0.00 0.00 37 1001.0
20260504173035 67 320 5.0 15.0 0.00 0.00 0.00 39 1000.8
20260504171543 68 268 2.0 8.0 0.00 0.00 0.00 39 1000.8